This is the latest recevied weather packets stored in our database for station/object WA6ODQ-13. If no packets are shown the sender has not sent any weather packets the latest 10 day(s).
| Time | Temp. | Humidity | Pressure | Rain* | Wind** | Luminosity | Snow |
|---|---|---|---|---|---|---|---|
| 1777502129 | 27.78° C | 44% | 1013.7 hPa | 0 mm | - | 553 W/m² | - |
| 1777501827 | 27.78° C | 44% | 1013.6 hPa | 0 mm | - | 568 W/m² | - |
| 1777501523 | 27.22° C | 45% | 1013.9 hPa | 0 mm | - | 577 W/m² | - |
| 1777501220 | 27.22° C | 44% | 1013.8 hPa | 0 mm | - | 588 W/m² | - |
| 1777500918 | 27.22° C | 45% | 1014.2 hPa | 0 mm | - | 599 W/m² | - |
| 1777500615 | 27.22° C | 45% | 1014 hPa | 0 mm | - | 608 W/m² | - |
| 1777500312 | 27.22° C | 45% | 1014.1 hPa | 0 mm | - | 615 W/m² | - |
| 1777500008 | 26.67° C | 45% | 1014.2 hPa | 0 mm | - | 623 W/m² | - |
| 1777499705 | 26.67° C | 45% | 1014.2 hPa | 0 mm | - | 631 W/m² | - |
| 1777499401 | 27.22° C | 44% | 1014.3 hPa | 0 mm | - | 641 W/m² | - |
| 1777499100 | 27.22° C | 45% | 1014.3 hPa | 0 mm | - | 648 W/m² | - |
| 1777498796 | 27.22° C | 44% | 1014.1 hPa | 0 mm | - | 658 W/m² | - |
| 1777498492 | 27.22° C | 43% | 1014.5 hPa | 0 mm | - | 664 W/m² | - |
| 1777498189 | 27.22° C | 43% | 1014.2 hPa | 0 mm | - | 670 W/m² | - |
| 1777497888 | 27.78° C | 42% | 1014.4 hPa | 0 mm | - | 676 W/m² | - |
| 1777497583 | 26.67° C | 43% | 1014.4 hPa | 0 mm | - | 684 W/m² | - |
| 1777497279 | 26.67° C | 42% | 1014.5 hPa | 0 mm | - | 687 W/m² | - |
| 1777496975 | 27.22° C | 43% | 1014.7 hPa | 0 mm | - | 693 W/m² | - |
| 1777496673 | 27.22° C | 43% | 1014.7 hPa | 0 mm | - | 700 W/m² | - |
| 1777496369 | 27.22° C | 42% | 1014.5 hPa | 0 mm | - | 702 W/m² | - |
| 1777496065 | 27.22° C | 43% | 1014.6 hPa | 0 mm | - | 706 W/m² | - |
| 1777495761 | 26.11° C | 44% | 1014.7 hPa | 0 mm | - | 712 W/m² | - |
| 1777495458 | 26.11° C | 44% | 1014.9 hPa | 0 mm | - | 713 W/m² | - |
| 1777495154 | 26.67° C | 41% | 1014.9 hPa | 0 mm | - | 719 W/m² | - |
| 1777494851 | 26.67° C | 41% | 1014.8 hPa | 0 mm | - | 721 W/m² | - |
* Rain latest hour (hover to see other rain measurements)
** Current wind speed in m/s (hover to see current wind gust speed)